www.pogodaiklimat.ru

Погода и климат >> Архив погоды >> Норвегия >> Вангснес


ПОГОДА в Вангснесе

  • Прогноз погоды в Вангснесе
  • Монитор погоды в Вангснесе

АРХИВ ПОГОДЫ в Вангснесе

Время (UTC), дата Ветер
(напр.,м/с)
 
Видим.   Явления Облачность Т
(С)
Тd
(С)
f
(%)
Тe
(С)
Тes
(С)
Комфортность P
(гПа)
Po
(гПа)
Тmin
(С)
Tmax
(С)
R
(мм)
R24
(мм)
S
(см)
10 10.08 В 6-10
{10}
н/о н/о +19.4 +11.7 61 +20 +20 998.4 992.1
11 10.08 В 4-8
{10}
н/о н/о +19.0 +12.3 65 +20 +20 998.2 991.9
12 10.08 СВ 3-8
{10}
5000 м слаб. дождь 10/6 300 м
[Frnb]
+18.3 +13.2 72 +19 +19 998.5 992.3 0.4
13 10.08 В 5-8
{8}
н/о н/о +17.7 +13.2 75 +17 +17 998.1 991.9
14 10.08 ЮВ 6-9
{9}
н/о н/о +18.0 +12.7 71 +17 +17 997.6 991.4
15 10.08 В 2-6
{8}
н/о н/о +19.2 +14.0 72 +21 +21 комфорт 997.2 991.0
16 10.08 В 2-5
{7}
н/о н/о +19.3 +13.5 69 +21 +21 комфорт 996.8 990.5
17 10.08 СВ 1-3
{6}
н/о н/о +18.3 +13.6 74 +20 +20 996.5 990.2
18 10.08 В 2-5
{9}
н/о н/о +18.5 +14.2 76 +20 +20 995.9 989.7 +17.6 +20.1 0.7
19 10.08 В 3-7
{7}
н/о н/о +18.6 +13.5 72 +19 +19 995.6 989.3
20 10.08 В 3-6
{8}
н/о н/о +18.4 +13.9 75 +19 +19 995.5 989.3
21 10.08 В 3-5
{7}
н/о н/о +18.7 +13.8 73 +20 +20 995.2 989.0
22 10.08 В 3-6
{7}
н/о н/о +19.2 +12.5 65 +21 +21 комфорт 995.1 988.9
23 10.08 В 4-7
{7}
н/о н/о +18.8 +12.8 68 +20 +20 995.0 988.7
00 11.08 В 3-7
{8}
н/о н/о +18.5 +12.9 70 +19 +19 994.8 988.6
01 11.08 В 5-7
{7}
н/о н/о +18.3 +13.4 73 +18 +18 994.8 988.5
02 11.08 В 4-8
{8}
н/о н/о +18.0 +13.3 74 +18 +18 994.8 988.5
03 11.08 В 4-7
{7}
н/о н/о +17.7 +13.4 76 +17 +17 994.9 988.6
04 11.08 ЮВ 4-5
{8}
н/о н/о +17.3 +13.4 78 +17 +17 994.9 988.6
05 11.08 В 2-5
{6}
н/о н/о +17.2 +13.9 81 +18 +18 995.0 988.7
06 11.08 В 3-6
{8}
55 км 9/0 2000 м
[Ac cuf Cs]
+17.2 +13.7 80 +17 +18 995.0 988.7 +17.1 +19.3
07 11.08 В 5-8
{8}
н/о н/о +18.4 +14.5 78 +19 +19 995.0 988.8
08 11.08 В 5-7
{7}
н/о н/о +17.8 +14.1 79 +17 +17 995.3 989.0
09 11.08 В 2-5
{6}
н/о н/о +18.5 +14.4 77 +20 +20 995.6 989.4
10 11.08 В 1-3
{4}
н/о н/о +18.6 +14.5 77 +20 +20 995.9 989.7
11 11.08 штиль 0
{3}
н/о н/о +19.3 +14.1 72 +21 +21 комфорт 996.3 990.1
12 11.08 ЮЗ 3-5
{8}
10 км слаб. дождь 10/6 300 м
[Frnb]
+17.7 +15.1 85 +18 +19 996.8 990.5
13 11.08 ЮЗ 3-4
{6}
н/о н/о +18.1 +15.9 87 +18 +18 997.1 990.9
14 11.08 ЮЗ 5-8
{8}
н/о н/о +17.8 +15.6 87 +17 +17 997.6 991.3
15 11.08 ЮЗ 4-6
{8}
н/о н/о +17.3 +15.7 90 +17 +17 998.3 992.0
16 11.08 Ю 5-7
{8}
н/о н/о +17.1 +15.6 91 +16 +16 998.6 992.3
17 11.08 Ю 4-6
{8}
н/о н/о +17.4 +15.9 91 +17 +17 999.1 992.8
18 11.08 ЮЗ 4-5
{8}
10 км {ливн. осадки} 9/6 200 м
[St Ac inh]
+17.6 +15.8 89 +17 +17 999.7 993.4 +17.1 +19.4 1
19 11.08 ЮЗ 2-4
{6}
н/о н/о +17.5 +15.5 88 +18 +18 1000.2 993.9
20 11.08 Ю 4-6
{7}
н/о н/о +16.8 +15.3 91 +16 +16 1000.7 994.3
21 11.08 ЮЗ 2-4
{5}
н/о н/о +16.4 +15.1 92 +16 +16 1000.8 994.5
22 11.08 Ю 1-2
{5}
н/о н/о +16.4 +15.3 93 +17 +17 1001.1 994.8
23 11.08 штиль 0-2
{4}
н/о н/о +16.3 +15.2 93 +16 +16 1001.3 994.9
00 12.08 Ю 3-4
{7}
н/о н/о +16.4 +14.9 91 +16 +16 1001.2 994.9 0.4
01 12.08 Ю 2-3
{4}
н/о н/о +15.9 +14.4 91 +16 +16 1001.1 994.8
02 12.08 Ю 3-4
{4}
н/о н/о +15.9 +14.6 92 +15 +15 1000.9 994.6
03 12.08 Ю 1-2
{4}
н/о н/о +15.9 +14.6 92 +17 +17 1000.8 994.4
04 12.08 Ю 3-4
{4}
н/о н/о +15.9 +14.6 92 +15 +15 1000.8 994.5
05 12.08 Ю 3-5
{5}
н/о н/о +15.6 +14.5 93 +15 +15 1000.8 994.4
06 12.08 Ю 3-5
{5}
20 км {морось} 9/6 300 м
[St Ac cuf]
+15.7 +14.2 91 +15 +15 1000.8 994.5 +15.4 +17.6 0.4
07 12.08 Ю 4-6
{6}
н/о н/о +16.5 +14.3 87 +16 +16 1000.8 994.5
08 12.08 Ю 5-7
{7}
н/о н/о +16.1 +13.8 86 +15 +15 1001.2 994.8
09 12.08 ЮЗ 6-9
{9}
н/о н/о +17.1 +13.6 80 +16 +16 1001.4 995.1
10 12.08 Ю 6-8
{10}
н/о н/о +16.8 +13.0 78 +16 +16 1001.2 994.8
11 12.08 ЮЗ 6-9
{9}
н/о н/о +17.8 +13.1 74 +17 +17 1001.2 994.9
12 12.08 Ю 6-9
{10}
20 км 6/4 600 м
[St As trans]
+17.0 +12.5 75 +16 +18 1001.2 994.9
13 12.08 ЮЗ 7-10
{10}
н/о н/о +17.8 +12.7 72 +17 +17 1001.3 995.0
14 12.08 ЮЗ 7-10
{11}
н/о н/о +17.0 +12.5 75 +16 +16 1001.5 995.1
15 12.08 ЮЗ 7-10
{11}
н/о н/о +17.0 +12.5 75 +16 +16 1001.3 995.0
16 12.08 ЮЗ 6-9
{10}
н/о н/о +16.8 +12.8 77 +16 +16 1001.4 995.1
17 12.08 Ю 6-9
{11}
н/о н/о +15.9 +12.8 82 +15 +15 1001.7 995.3
18 12.08 Ю 6-11
{11}
10 км осадки на расстоянии {ливн. осадки} 10/6 300 м
[St Ac inh]
+15.6 +12.9 84 +14 +14 1001.8 995.5 +15.6 +18.1 0.6
19 12.08 Ю 7-10
{11}
н/о н/о +15.6 +12.4 81 +14 +14 1002.1 995.7
20 12.08 Ю 7-10
{11}
н/о н/о +14.6 +12.3 86 +13 +13 1002.4 996.1
21 12.08 Ю 7-11
{13}
н/о н/о +14.2 +12.1 87 +12 +12 1002.8 996.4
22 12.08 Ю 7-10
{11}
н/о н/о +13.9 +11.8 87 +12 +12 1003.1 996.7
23 12.08 Ю 8-11
{12}
н/о н/о +13.4 +11.6 89 +11 +11 1003.4 997.0
00 13.08 Ю 7-11
{13}
н/о н/о +13.1 +11.7 91 +10 +10 1003.7 997.3 7
01 13.08 Ю 7-10
{10}
н/о н/о +12.8 +11.5 92 +10 +10 1003.7 997.3
02 13.08 Ю 7-10
{10}
н/о н/о +12.7 +11.4 92 +10 +10 1004.1 997.7
03 13.08 Ю 7-10
{11}
н/о н/о +12.5 +11.2 92 +10 +10 1004.1 997.7
04 13.08 Ю 7-10
{11}
н/о н/о +12.4 +11.1 92 +9 +9 1004.4 997.9
05 13.08 Ю 6-10
{10}
н/о н/о +12.4 +11.1 92 +10 +10 1004.4 998.0
06 13.08 Ю 8-11
{11}
3000 м сильн. дождь {ливн. осадки} ?/? +12.4 +10.8 90 +9 +9 1004.5 998.1 +12.3 +15.9 27
07 13.08 Ю 7-10
{11}
н/о н/о +12.3 +10.2 87 +9 +9 1004.9 998.5
08 13.08 Ю 8-11
{12}
н/о н/о +12.3 +10.0 86 +9 +9 1005.2 998.7
09 13.08 Ю 8-12
{12}
н/о н/о +12.2 +9.8 85 +9 +9 1005.2 998.8
10 13.08 Ю 8-11
{11}
н/о н/о +12.4 +9.8 84 +9 +9 1005.3 998.9
11 13.08 Ю 7-10
{11}
н/о н/о +12.2 +9.4 83 +9 +9 1005.7 999.2
12 13.08 Ю 8-12
{12}
5000 м дождь {ливн. осадки} 10/6 300 м
[Frnb As op]
+12.6 +9.2 80 +10 +10 1005.7 999.3 3
13 13.08 Ю 7-10
{13}
н/о н/о +12.8 +9.3 79 +10 +10 1006.0 999.5
14 13.08 Ю 8-11
{12}
н/о н/о +12.5 +9.3 81 +9 +9 1006.2 999.7
15 13.08 Ю 8-13
{13}
н/о н/о +12.5 +9.5 82 +9 +9 1006.4 999.9
16 13.08 Ю 8-11
{12}
н/о н/о +12.4 +9.2 81 +9 +9 1006.4 1000.0
17 13.08 Ю 5-10
{12}
н/о н/о +12.3 +9.0 80 +10 +10 1006.8 1000.4
18 13.08 Ю 6-10
{13}
3000 м дождь {ливн. осадки} 10/6 300 м
[Frnb As op]
+11.9 +8.8 81 +9 +9 1007.2 1000.7 +11.9 +12.9 3
19 13.08 Ю 5-8
{12}
н/о н/о +12.0 +8.3 78 +10 +10 1007.5 1001.0
20 13.08 ЮЗ 4-7
{8}
н/о н/о +11.7 +8.2 79 +10 +10 1007.8 1001.3
21 13.08 Ю 5-8
{8}
н/о н/о +12.0 +7.1 72 +10 +10 1007.9 1001.4
22 13.08 ЮЗ 5-8
{9}
н/о н/о +12.1 +7.8 75 +10 +10 1008.0 1001.5
23 13.08 Ю 4-8
{8}
н/о н/о +11.9 +7.6 75 +10 +10 1008.1 1001.6
00 14.08 Ю 3-5
{12}
н/о н/о +11.9 +7.8 76 +10 +10 1008.2 1001.7 0.2
01 14.08 ЮЗ 3-5
{7}
н/о н/о +12.0 +7.5 74 +10 +10 1008.3 1001.8
02 14.08 ЮЗ 4-7
{8}
н/о н/о +12.1 +7.6 74 +10 +10 1008.4 1001.9
03 14.08 ЮЗ 3-5
{7}
н/о н/о +11.8 +7.3 74 +10 +10 1008.2 1001.7
04 14.08 ЮЗ 3-6
{6}
н/о н/о +11.8 +7.3 74 +10 +10 1008.1 1001.6
05 14.08 ЮЗ 3-5
{6}
н/о н/о +11.7 +7.4 75 +10 +10 1008.2 1001.8
06 14.08 ЮЗ 3-5
{8}
55 км 9/5 1500 м
[Cu Sc Ac trans]
+12.0 +7.9 76 +10 +11 1008.4 1001.9 +11.5 +12.2 0.2
07 14.08 ЮЗ 1-3
{5}
н/о н/о +12.9 +8.4 74 +13 +13 1008.4 1002.0
08 14.08 З 1-2
{4}
н/о н/о +13.1 +9.0 76 +13 +13 1008.5 1002.1
09 14.08 СЗ 2-3
{3}
н/о н/о +13.2 +9.7 79 +13 +13 1008.6 1002.2
10 14.08 СЗ 2-3
{3}
н/о н/о +13.7 +9.2 74 +13 +13 1008.7 1002.3
11 14.08 З 2-3
{3}
н/о н/о +13.5 +8.6 72 +13 +13 1008.6 1002.2
12 14.08 СЗ 2-3
{5}
55 км 9/0 1500 м
[Ac As]
+15.5 +8.5 63 +15 +21 1008.4 1002.0
13 14.08 штиль 0-2
{4}
н/о н/о +15.8 +8.1 60 +16 +16 1008.5 1002.1
14 14.08 С 2-3
{5}
н/о н/о +14.9 +9.1 68 +15 +15 1008.6 1002.2
15 14.08 ЮЗ 4-6
{6}
н/о н/о +14.3 +8.9 70 +13 +13 1008.7 1002.3
16 14.08 З 1-3
{5}
н/о н/о +14.8 +9.0 68 +15 +15 1008.7 1002.2
17 14.08 ЮЗ 1-4
{4}
н/о н/о +14.2 +8.8 70 +15 +15 1008.7 1002.3
18 14.08 СЗ 2-4
{6}
55 км 9/5 1500 м
[Cu Sc Ac As]
+14.1 +9.1 72 +14 +14 1008.9 1002.4 +12.0 +17.0
19 14.08 Ю 4-6
{8}
н/о н/о +13.1 +7.8 70 +11 +11 1009.1 1002.7
20 14.08 Ю 2-3
{5}
н/о н/о +12.5 +7.6 72 +12 +12 1009.4 1003.0
21 14.08 ЮЗ 4-6
{6}
н/о н/о +12.2 +7.5 73 +10 +10 1009.5 1003.0
22 14.08 Ю 3-4
{6}
н/о н/о +11.6 +7.5 76 +10 +10 1009.7 1003.2
23 14.08 ЮЗ 2-4
{4}
н/о н/о +11.7 +8.0 78 +11 +11 1009.7 1003.2
00 15.08 ЮЗ 1-2
{8}
н/о н/о +11.9 +9.1 83 +12 +12 1009.6 1003.2
01 15.08 штиль 0
{2}
н/о н/о +11.4 +9.0 85 +11 +11 1009.5 1003.0
02 15.08 штиль 0 н/о н/о +11.1 +9.2 88 +10 +10 1009.2 1002.7
03 15.08 штиль 0 н/о н/о +10.3 +8.2 87 +10 +10 1008.9 1002.3
04 15.08 ЮВ 2-3
{3}
н/о н/о +9.7 +7.8 88 +8 +8 1008.5 1002.0
05 15.08 В 3-5
{5}
н/о н/о +10.8 +8.9 88 +9 +9 1008.4 1001.9
06 15.08 В 2-3
{5}
55 км 4/1 300 м
[St Cs]
+12.9 +9.2 78 +12 +13 1008.1 1001.7 +9.6 +14.1
07 15.08 СВ 1-3
{4}
н/о н/о +13.4 +9.1 75 +14 +14 1007.7 1001.2
08 15.08 СВ 2-6
{6}
н/о н/о +14.2 +9.4 73 +14 +14 1007.2 1000.7
09 15.08 СВ 3-6
{6}
н/о н/о +14.9 +9.9 72 +14 +14 1006.6 1000.2
10 15.08 СВ 1-4
{6}
н/о н/о +16.3 +10.0 66 +17 +17 1006.1 999.8
11 15.08 СВ 1-3
{5}
н/о н/о +17.8 +9.7 59 +19 +19 1005.5 999.2
12 15.08 В 1-4
{6}
55 км 4/0 2000 м
[Ac cuf Cs]
+17.4 +10.1 62 +18 +28 1005.0 998.7
13 15.08 В 2-3
{4}
н/о н/о +16.7 +9.4 62 +17 +17 1004.6 998.2
14 15.08 штиль 0-2
{3}
н/о н/о +18.1 +8.9 55 +18 +18 1004.0 997.7
15 15.08 В 1-3
{3}
н/о н/о +18.2 +9.3 56 +19 +19 1003.7 997.4
16 15.08 ЮВ 2-3
{3}
н/о н/о +18.2 +7.6 50 +19 +19 1003.4 997.0
17 15.08 ЮВ 2-3
{4}
н/о н/о +16.6 +8.3 58 +17 +17 1002.9 996.6
18 15.08 ЮВ 3-5
{5}
55 км 9/0 2000 м
[Ac As]
+16.1 +10.0 67 +16 +16 1002.7 996.4 +12.5 +18.8
19 15.08 ЮВ 4-6
{7}
н/о н/о +15.8 +10.1 69 +15 +15 1002.6 996.3
20 15.08 ЮВ 1-3
{5}
н/о н/о +16.3 +9.3 63 +17 +17 1002.8 996.5
21 15.08 штиль 0-2
{3}
н/о н/о +15.8 +10.4 70 +16 +16 1003.0 996.7
22 15.08 штиль 0-2
{3}
н/о н/о +15.0 +10.8 76 +15 +15 1003.1 996.7
23 15.08 З 1-3
{3}
н/о н/о +15.2 +11.8 80 +16 +16 1003.1 996.7
00 16.08 ЮЗ 2-4
{7}
н/о н/о +14.6 +11.8 83 +14 +14 1004.0 997.6 0.5
01 16.08 ЮЗ 2-3
{7}
н/о н/о +13.5 +11.9 90 +13 +13 1004.2 997.8
02 16.08 ЮЗ 2-3
{4}
н/о н/о +13.7 +12.4 92 +13 +13 1004.7 998.2
03 16.08 Ю 7-10
{10}
н/о н/о +13.0 +11.4 90 +10 +10 1004.9 998.5
04 16.08 Ю 6-9
{10}
н/о н/о +13.1 +10.6 85 +11 +11 1005.5 999.1
05 16.08 Ю 6-10
{10}
н/о н/о +12.9 +10.3 84 +10 +10 1005.8 999.4
06 16.08 Ю 6-9
{11}
30 км 8/5 600 м
[Sc Ac cuf]
+13.3 +9.7 79 +11 +11 1006.1 999.7 +12.9 +16.4 5
07 16.08 Ю 5-8
{10}
н/о н/о +13.6 +8.2 70 +12 +12 1006.6 1000.2
08 16.08 Ю 5-7
{9}
н/о н/о +14.2 +7.5 64 +13 +13 1007.0 1000.5
09 16.08 Ю 4-7
{8}
н/о н/о +14.2 +8.2 67 +13 +13 1007.1 1000.6
10 16.08 Ю 5-8
{9}
н/о н/о +15.5 +8.3 62 +14 +14 1007.3 1000.9
11 16.08 Ю 4-6
{7}
н/о н/о +15.2 +8.2 63 +14 +14 1007.1 1000.8
12 16.08 ЮЗ 4-6
{10}
55 км 9/0 2000 м
[Ac As]
+15.8 +8.5 62 +15 +19 1006.8 1000.4
13 16.08 ЮЗ 3-5
{6}
н/о н/о +15.8 +8.3 61 +15 +15 1006.7 1000.3
14 16.08 ЮЗ 3-4
{5}
н/о н/о +16.3 +8.5 60 +16 +16 1006.1 999.7
15 16.08 ЮЗ 3-4
{4}
н/о н/о +16.0 +9.2 64 +16 +16 1005.6 999.2
16 16.08 ЮЗ 2-3
{4}
н/о н/о +16.0 +9.0 63 +16 +16 1005.3 999.0
17 16.08 ЮЗ 3-4
{4}
н/о н/о +15.4 +9.5 68 +15 +15 1005.1 998.7
18 16.08 Ю 2-3
{6}
30 км осадки на расстоянии 10/0 2000 м
[Ac As]
+14.6 +10.2 75 +14 +14 1005.1 998.7 +13.3 +16.7
19 16.08 штиль 0-1
{3}
н/о н/о +13.8 +10.0 78 +13 +13 1004.6 998.2
20 16.08 Ю 3-5
{5}
н/о н/о +13.9 +10.7 81 +13 +13 1004.4 998.0
21 16.08 Ю 2-3
{4}
н/о н/о +13.5 +10.3 81 +13 +13 1004.4 998.0
22 16.08 Ю 1-2
{3}
н/о н/о +13.3 +10.5 83 +13 +13 1003.9 997.5
23 16.08 В 1-4
{4}
н/о н/о +13.1 +10.3 83 +13 +13 1003.1 996.7
00 17.08 В 1-3
{5}
н/о н/о +13.2 +10.7 85 +13 +13 1002.3 995.9
01 17.08 В 2-4
{4}
н/о н/о +13.5 +10.7 83 +13 +13 1001.5 995.1
02 17.08 СВ 2-6
{6}
н/о н/о +13.9 +10.7 81 +13 +13 1000.5 994.1
03 17.08 В 4-7
{7}
н/о н/о +14.0 +10.6 80 +13 +13 999.7 993.4
04 17.08 В 3-7
{7}
н/о н/о +13.0 +10.9 87 +12 +12 999.0 992.6
05 17.08 В 3-7
{7}
н/о н/о +12.9 +10.8 87 +11 +11 998.5 992.1
06 17.08 В 4-7
{7}
2500 м дождь 10/5 300 м
[As op]
+13.0 +11.1 88 +11 +11 997.6 991.2 +12.8 +14.6 2
07 17.08 В 4-9
{9}
н/о н/о +13.4 +11.6 89 +12 +12 996.8 990.4
08 17.08 В 4-9
{10}
н/о н/о +13.5 +11.9 90 +12 +12 995.8 989.5
09 17.08 В 5-8
{10}
н/о н/о +13.8 +11.9 88 +12 +12 995.1 988.8

 

Местоположение метеостанции Вангснес (Норвегия): широта 61.17 долгота 6.65 высота над уровнем моря 49 м.

В архиве по умолчанию представлена погода в Вангснесе за последнюю неделю. Архивные данные за месяц целиком и за предыдущие месяцы, начиная с января 2011 года, Вы можете получить, выбрав интересующий диапазон дат из раскрывающегося списка и нажав кнопку "Ввод!".


*Определитесь, кто Вы:
робот инопланетянин человек

Внимание! Время в таблицах - всемирное. Для получения местного времени необходимо прибавить поправку, которая равна 1 ч.

Смотрите также архив погоды в соседних городах и на ближайших метеорологических станциях:

Погода в Согндал аэропорту (Норвегия) (26 км)
Погода во Фьерлэнде (Норвегия) (29 км)
Погода в Лардале (Норвегия) (46 км)
Погода в Модалене (Норвегия) (50 км)
Погода во Флурё (Норвегия) (51 км)
Погода во Флурё аэропорту (Норвегия) (53 км)
Погода в Мьолфелле (Норвегия) (55 км)
Погода в Клеваватнете (Норвегия) (58 км)
Погода в Воссевангене (Норвегия) (61 км)
Погода в Булкене (Норвегия) (62 км)

Пояснения к столбцам:

Ветер - указаны скорость ветра в м/с - средняя за 10 мин, порывы в срок и между сроками (в фигурных скобках) и направление, откуда дует ветер: С - северный, СВ - северо-восточный, В - восточный, ЮВ - юго-восточный, Ю - южный, ЮЗ - юго-западный, З - западный, СЗ - северо-западный.
Видимость - горизонтальная дальность видимости в метрах или километрах. При видимости от 1 до 10 км при отсутствии осадков обычно наблюдается дымка, при ухудшении видимости до 1 км и менее - туман. В сухую погоду видимость может ухудшаться дымом, пылью или мглою.
Явления - указаны атмосферные явления, наблюдавшиеся в срок или в последний час перед сроком; фигурными скобками обозначены явления, наблюдавшиеся между сроками (за 1-3 часа до срока); квадратными скобками обозначены град или гололедные отложения с указанием их диаметра в мм.
Облачность - указаны через наклонную черту общая и нижняя облачность в баллах и высота нижней границы облаков в метрах; квадратными скобками обозначены формы облаков: Ci - перистые, Cs - перисто-слоистые, Cc - перисто-кучевые, Ac - высококучевые, As - высокослоистые, Sc - слоисто-кучевые, Ns - слоисто-дождевые, Cu - кучевые, Cb - кучево-дождевые. Подробнее классификацию облаков см. в Атласе облаков (PDF).
T - Температура воздуха - температура, измеренная на высоте 2 м над землей.
Td - Температура точки росы - температура, при понижении до которой содержащийся в воздухе водяной пар достигнет насыщения.
f - Относительная влажность воздуха - влажноcть воздуха, измеренная на высоте 2 м над землей.
Te - Эффективная температура - температура, которую ощущает одетый по сезону человек в тени. Характеристика душности погоды. При расчете учитывается влияние влажности воздуха и скорости ветра на теплоощущения человека.
Tes - Эффективная температура на солнце - температура, которую ощущает человек, с поправкой на солнечный нагрев. Характеристика знойности погоды. Зависит от высоты солнца над горизонтом, облачности и скорости ветра. Ночью, в пасмурную погоду, а также при ветре 12 м/с и более поправка равна нулю.
P - Атмосферное давление - приведенное к уровню моря атмосферное давление.
Po - Атмосферное давление - измеренное на уровне метеостанции атмосферное давление.
Tmin - Минимальная температура - минимум температуры воздуха на высоте 2 м над землей.
Tmax - Максимальная температура - максимум температуры воздуха на высоте 2 м над землей.
R - Количество осадков - Количество выпавших осадков за период времени, мм. При наведении курсора мыши на число - период времени, за который выпало указанное количество осадков.
R24 - Количество осадков - Количество выпавших осадков за 24 часа, мм.
S - Снежный покров - Высота снежного покрова, см. При наведении курсора мыши на число - состояние снежного покрова и степень покрытия местности в баллах.